Location: Huberhof
(49.2050°N, 7.4980°E)
Time: 05:12:35
(UTC+00:00)

SL-4 R/B - Pass Details

Date: 29 October 2020
Orbit: 427 x 665 km, 51.6° (Epoch: 25 November)

Event Time Altitude Azimuth Distance (km) Brightness Sun altitude
Rises 17:28:43 0° 285° (WNW) 2,429 6.7 -12.8°
Reaches altitude 10° 17:30:47 10° 288° (WNW) 1,580 5.5 -13.2°
Maximum altitude 17:34:19 69° 13° (NNE) 504 1.7 -13.7°
Enters shadow 17:36:17 26° 91° (E) 983 2.7 -14.0°
